Location: Dammartin
(48.9032°N, 1.6195°E)
Time: 11:16:15
(UTC+00:00)

SO-50 - Pass Details

Date: 13 December 2023
Orbit: 607 x 661 km, 64.6° (Epoch: 21 February)

Event Time Altitude Azimuth Distance (km) Brightness Sun altitude
Exits shadow 04:37:43 10° 13° (NNE) 2,015 ? -28.5°
Drops below altitude 10° 04:37:50 10° 15° (NNE) 2,036 ? -28.5°
Sets 04:41:21 0° 43° (NE) 2,931 ? -27.9°
